Home > Weather > Oran > Past weeks

Flag for Algeria Weather for the Past 2 Weeks in Oran, Algeria

Now
61 °F

Passing clouds.


Feels Like: 61 °F
Forecast: 50 / 57 °F
Wind: 18 mph from West

Location: Oran / Es Senia

Current Time: Feb 14, 2016 at 1:59:24 AM

Latest Report: Feb 14, 2016 at 1:00 AM


Visibility: N/A

Pressure: 29.95 "Hg

Humidity: 83%

Dew point: 55 °F

Location of OranLocation

Historic Weather in Oran — Graph

°F

Oran Temperature Yesterday

Maximum temperature yesterday: 68 °F (at 1:00 PM)
Minimum temperature yesterday: 61 °F (at 12:00 AM)
Average temperature yesterday: 64 °F

High & Low Weather Summary for the Past Weeks

 TemperatureHumidityPressure
High73 °F (Feb 5, 2:30 PM)100% (Jan 30, 12:30 AM)30.60 "Hg (Jan 30, 12:30 AM)
Low39 °F (Feb 1, 7:30 AM)38% (Feb 1, 2:00 PM)29.95 "Hg (Feb 13, 6:30 PM)
Average58 °F80%30.27 "Hg
* Reported Jan 30 12:30 AM — Feb 14 12:30 AM, Oran, Weather by CustomWeather, © 2016

Note: Actual official high and low records may vary slightly from our data, if they occured in-between our weather recording intervals... More about our weather records

Advertising

Oran Weather History for the Previous 24 Hours

 ConditionsComfort  
Time TempWeatherWind HumidityBarometerVisibility
12:30 AM
Sun, Feb 14
61 °FPassing clouds.18 mph83%29.95 "HgN/A
12:00 AM61 °FPassing clouds.23 mph83%29.95 "HgN/A
11:30 PM
Sat, Feb 13
61 °FPassing clouds.28 mph83%29.98 "HgN/A
11:00 PM61 °FPassing clouds.23 mph83%29.98 "HgN/A
10:30 PM61 °FPassing clouds.18 mph77%29.98 "HgN/A
10:00 PM63 °FPassing clouds.18 mph73%29.98 "HgN/A
9:30 PM63 °FPassing clouds.20 mph73%30.01 "HgN/A
9:00 PM63 °FPassing clouds.18 mph73%30.01 "HgN/A
8:30 PM63 °FPassing clouds.23 mph73%29.98 "HgN/A
8:00 PM63 °FPassing clouds.18 mph77%29.98 "HgN/A
7:30 PM63 °FPartly cloudy.23 mph73%29.98 "HgN/A
7:00 PM63 °FPartly cloudy.16 mph77%29.98 "HgN/A
6:30 PM64 °FBroken clouds.21 mph68%29.95 "HgN/A
6:00 PM64 °FBroken clouds.21 mph73%29.98 "HgN/A
5:30 PM66 °FBroken clouds.17 mph78%29.98 "HgN/A
5:00 PM66 °FBroken clouds.17 mph78%29.98 "HgN/A
4:30 PM66 °FBroken clouds.20 mph78%29.98 "HgN/A
4:00 PM66 °FBroken clouds.20 mph78%30.01 "HgN/A
3:30 PM68 °FBroken clouds.15 mph78%30.01 "HgN/A
3:00 PM68 °FBroken clouds.25 mph78%30.01 "HgN/A
2:30 PM68 °FBroken clouds.25 mph78%30.01 "HgN/A
2:00 PM68 °FBroken clouds.23 mph78%30.01 "HgN/A
1:30 PM68 °FBroken clouds.23 mph78%30.04 "HgN/A
1:00 PM68 °FBroken clouds.23 mph78%30.04 "HgN/A
12:30 PM66 °FBroken clouds.22 mph83%30.07 "HgN/A
12:00 PM66 °FBroken clouds.22 mph83%30.07 "HgN/A
11:30 AM66 °FBroken clouds.21 mph83%30.04 "HgN/A
11:00 AM66 °FBroken clouds.17 mph83%30.04 "HgN/A
10:30 AM64 °FBroken clouds.24 mph83%30.04 "HgN/A
10:00 AM64 °FBroken clouds.20 mph83%30.04 "HgN/A
9:30 AM64 °FScattered clouds.15 mph78%30.04 "HgN/A
9:00 AM63 °FScattered clouds.15 mph83%30.01 "HgN/A
8:30 AM63 °FBroken clouds.13 mph83%30.04 "HgN/A
8:00 AM63 °FScattered clouds.16 mph83%30.01 "HgN/A
7:30 AM63 °FPartly cloudy.18 mph83%29.98 "HgN/A
7:00 AM63 °FPassing clouds.16 mph83%29.98 "HgN/A
6:30 AM63 °FPassing clouds.16 mph83%29.98 "HgN/A
6:00 AM64 °FPassing clouds.21 mph78%29.98 "HgN/A
5:30 AM64 °FPassing clouds.24 mph78%29.98 "HgN/A
5:00 AM64 °FPassing clouds.25 mph78%29.98 "HgN/A
4:30 AM64 °FPassing clouds.22 mph78%30.01 "HgN/A
4:00 AM63 °FPassing clouds.18 mph83%30.01 "HgN/A
3:30 AM63 °FPassing clouds.18 mph83%30.01 "HgN/A
3:00 AM63 °FPassing clouds.18 mph83%30.01 "HgN/A
2:30 AM63 °FPassing clouds.16 mph83%30.01 "HgN/A
2:00 AM63 °FPassing clouds.21 mph83%30.01 "HgN/A
1:30 AM63 °FPartly cloudy.18 mph83%30.04 "HgN/A
1:00 AM63 °FPartly cloudy.18 mph83%30.04 "HgN/A
Weather by CustomWeather, © 2016

See weather overviewHow to use our weather pages